FENGYUN 1C DEB

Satellite information

Favourite Embed

Satellite Type and Status

DEBRISIN ORBIT

Key statistics

Satellite FENGYUN 1C DEB at a glance.

Uptime

9658

Days in orbit

Revolutions

≈ 14.6

Per day

Orbit

SSO

Sun Synchronous Orbit

Inclination

99.3

Latest

Satellite identification and parameters

Extended collection of information and parameters for FENGYUN 1C DEB.

Object identification

Identified? True

Debris? True

Object name: FENGYUN 1C DEB

International designator: 1999-025CNG

Object number (NORAD): 31955

Object ID (CCSDS): 31955

Country: PEOPLES REPUBLIC OF CHINA (PRC)

Current information (Y/N): Y

RCS size: SMALL

Orbital parameters

Period: 98.47 minutes

Inclination: 99.2849 deg

SMA: 7063.653 km

Apoapsis: 718.469 km

Periapsis: 652.567 km

RAAN: 160.4167 deg

Eccentricy: 0.00466483

Argument of periapsis: 353.8061 deg

Mean anomaly: 36.3236 deg

Mean motion: 14.62374855 rev/day

Mean motion (dot): 0.00013517 rev/day2

B* drag term: 0.0026393281 1/REarth

Two-line elements (TLE)

Creation date: Oct. 18, 2025, 2:17 a.m.

Reference frame: TEME

Reference center: EARTH

Epoch: Oct. 17, 2025, 2:15 p.m. UTC

TLE line 0: 0 FENGYUN 1C DEB

TLE line 1: 1 31955U 99025CNG 25290.59409303 .00013517 00000-0 26393-2 0 9991

TLE line 2: 2 31955 99.2849 160.4167 0046648 353.8061 36.3236 14.62374855957363

Live tracking on map

Real-time ground track for satellite FENGYUN 1C DEB.

In-orbit conjunctions

A list of the most updated potential collisions computed for object FENGYUN 1C DEB.

Target Orbit TCA Probability of collision Miss distance Type
CZ-4 DEB SSO 2025-09-24 12:38:25 0.0002017146 177.0 (m) DEBRIS
CZ-6A DEB SSO 2025-09-15 11:55:49 0.0001806938 111.0 (m) DEBRIS

Associated space launch

Chinese polar orbiting meteorological satellite

FENGYUN 1C DEB was lifted into orbit during the mission ‘Long March 4B | Feng Yun 1C’, on board a Long March 4B space rocket.

The launch took place on May 10, 1999, 1:33 a.m. from Launch Complex 7.

For more information about the launch, click the button.

Launch to space Long March 4B | Feng Yun 1C
Long March 4B | Feng Yun 1C

Agency: N/A

Status: Launch Successful

Launch date: May 10, 1999, 1:33 a.m. UTC

Rocket: Long March 4B

Launch pad: Launch Complex 7

Location: Taiyuan Satellite Launch Center, People's Republic of China

...

Latest news about this satellite

There are no fresh news available about this satellite. Check back as we update our databases every day.


Newsletter sign-up

Weekly statistics, charts and insights to help you stay on top of the space industry.